Tracking 19832 objects as of 25-Aug-2019
HD Live streaming from Space Station
objects crossing your sky now

COSMOS 2251 DEB

Track COSMOS 2251 DEB now!
10-day predictions


NORAD ID: 33909
Int'l Code: 1993-036DN
Perigee: 566.5 km
Apogee: 600.4 km
Inclination: 74.1 °
Period: 96.2 minutes
Semi major axis: 6954 km
RCS: 0.0366 m2 (small)
Launch date: June 16, 1993
Source: Commonwealth of Independent States (former USSR) (CIS)
Launch site: PLESETSK MISSILE AND SPACE COMPLEX (PKMTR)

Note: This is SATELLITE DEBRIS
aabbcc
Your satellite tracking list
Your tracking list is empty




NASA's NSSDC Master Catalog

Two Line Element Set (TLE):
1 33909U 93036DN  19236.86158555  .00007058  00000-0  61300-3 0  9992
2 33909  74.0513  28.5452 0024371 188.1867 171.8924 14.96963734556682
Source of the keplerian elements: AFSPC